This is the latest recevied weather packets stored in our database for station/object DW9280. If no packets are shown the sender has not sent any weather packets the latest 1 day(s).
| Time | Temp. | Humidity | Pressure | Rain* | Wind** | Luminosity | Snow |
|---|---|---|---|---|---|---|---|
| 1777991288 | 14.44° C | 69% | 1010.4 hPa | 0 mm | 3.13 m/s, 345° | 515 W/m² | - |
| 1777990987 | 13.89° C | 68% | 1010.5 hPa | 0 mm | 3.58 m/s, 333° | 478 W/m² | - |
| 1777990687 | 14.44° C | 68% | 1010.5 hPa | 0 mm | 3.58 m/s, 340° | 476 W/m² | - |
| 1777990389 | 14.44° C | 68% | 1010.6 hPa | 0 mm | 3.58 m/s, 330° | 555 W/m² | - |
| 1777990213 | 14.44° C | 69% | 1010.6 hPa | 0 mm | 3.58 m/s, 346° | 610 W/m² | - |
| 1777989789 | 13.89° C | 69% | 1010.6 hPa | 0 mm | 3.13 m/s, 355° | 599 W/m² | - |
| 1777989488 | 14.44° C | 68% | 1010.7 hPa | 0 mm | 3.13 m/s, 18° | 446 W/m² | - |
| 1777989194 | 14.44° C | 69% | 1010.7 hPa | 0 mm | 2.68 m/s, 341° | 411 W/m² | - |
| 1777988888 | 14.44° C | 68% | 1010.8 hPa | 0 mm | 2.68 m/s, 338° | 425 W/m² | - |
| 1777988589 | 14.44° C | 68% | 1010.7 hPa | 0 mm | 2.68 m/s, 26° | 489 W/m² | - |
| 1777988288 | 14.44° C | 69% | 1010.8 hPa | 0 mm | 3.58 m/s, 355° | 513 W/m² | - |
| 1777987989 | 14.44° C | 68% | 1010.9 hPa | 0 mm | 3.58 m/s, 333° | 638 W/m² | - |
| 1777987690 | 14.44° C | 69% | 1010.9 hPa | 0 mm | 3.13 m/s, 335° | 578 W/m² | - |
| 1777987388 | 14.44° C | 69% | 1010.9 hPa | 0 mm | 2.68 m/s, 355° | 684 W/m² | - |
| 1777987088 | 14.44° C | 70% | 1010.9 hPa | 0 mm | 2.68 m/s, 24° | 649 W/m² | - |
| 1777986787 | 13.89° C | 70% | 1011 hPa | 0 mm | 2.68 m/s, 331° | 585 W/m² | - |
| 1777986489 | 13.89° C | 69% | 1011 hPa | 0 mm | 2.68 m/s, 35° | 575 W/m² | - |
| 1777986190 | 13.89° C | 71% | 1011 hPa | 0 mm | 3.13 m/s, 9° | 538 W/m² | - |
| 1777985888 | 13.89° C | 71% | 1011 hPa | 0 mm | 3.13 m/s, 355° | 545 W/m² | - |
| 1777985587 | 13.89° C | 70% | 1011 hPa | 0 mm | 3.13 m/s, 321° | 533 W/m² | - |
| 1777985289 | 14.44° C | 69% | 1011 hPa | 0 mm | 2.68 m/s, 5° | 626 W/m² | - |
| 1777984987 | 13.89° C | 71% | 1011 hPa | 0 mm | 3.13 m/s, 312° | 666 W/m² | - |
| 1777984687 | 13.89° C | 70% | 1011.1 hPa | 0 mm | 3.13 m/s, 349° | 594 W/m² | - |
| 1777984389 | 14.44° C | 70% | 1011.1 hPa | 0 mm | 2.68 m/s, 342° | 635 W/m² | - |
| 1777984087 | 14.44° C | 71% | 1011 hPa | 0 mm | 2.68 m/s, 318° | 666 W/m² | - |
* Rain latest hour (hover to see other rain measurements)
** Current wind speed in m/s (hover to see current wind gust speed)